[[{"header":{"parameterUnit":"m.s-1","parameterCategory":1,"la1":30.2991,"la2":30.254,"lo1":-89.0895,"lo2":-89.0444,"dy":0.0017,"dx":0.0017,"nx":28,"ny":28,"refTime":"2024-07-04T21:00:00:Z","depth":0,"parameterNumber":2,"parameterNumberName":"U-component_of_WINDS"},"data":[0,0,0,0,0,0,0,0,0,0,0,0,0,0,0,0,0,0,0,0,0,0,0,0,0,0,0,0,0,0,0,0,0,0,0,0,0,0,0,0,0,0,0,0,0,0,0,0,0,0,0,0,0,0,0,0,0,0,4.685,4.6851,0,4.6966,4.6968,4.6969,4.6896,4.6893,4.6889,4.6886,4.7006,4.7012,4.7018,0,0,0,0,0,0,0,0,0,0,0,0,0,4.6563,4.6569,4.685,4.6852,4.6853,4.6966,4.6968,4.6969,4.6897,4.6893,4.6888,4.6885,4.7003,4.7011,4.7019,0,0,0,0,0,0,0,0,0,0,0,0,0,4.6684,4.657,4.685,4.683,4.683,4.6966,4.6968,4.697,4.6898,4.6893,4.6887,4.6883,4.7001,4.701,4.702,4.7181,0,0,4.7049,4.7053,0,0,0,0,0,0,0,0,4.6677,4.6695,4.6832,4.6832,4.6832,4.6912,4.691,4.7041,4.6899,4.6872,4.6886,4.688,4.6978,4.6989,4.7023,4.7187,4.7192,4.705,4.7055,4.706,4.7062,0,0,0,0,0,0,0,4.6669,4.6689,4.6896,4.6834,4.6834,4.6815,4.6827,4.6935,4.6953,4.6874,4.6869,4.6884,4.6977,4.7014,4.7025,4.7194,4.7049,4.7058,4.7064,4.7068,4.7491,4.7497,0,0,0,0,0,0,4.6662,4.6683,4.6892,4.69,4.674,4.6824,4.6837,4.6891,4.6951,4.6955,4.6888,4.688,4.7,4.7014,4.7029,4.7218,4.7059,4.7068,4.7074,4.7486,4.7493,4.7499,0,0,0,0,0,0,4.6657,4.6682,4.6888,4.679,4.6815,4.6835,4.6896,4.6896,4.6932,4.6962,4.6964,4.6922,4.6996,4.7015,4.7143,4.7221,4.7073,4.7081,4.7479,4.7488,4.7496,4.76,0,0,0,0,0,0,4.6649,4.668,4.6743,4.6792,4.682,4.7001,4.6901,4.6902,4.6949,4.6939,4.6994,4.6998,4.6994,4.7129,4.7152,4.7232,4.7089,4.7472,4.7483,4.7493,4.759,4.7611,4.7629,0,0,0,0,0,4.6639,4.6769,4.6746,4.6772,4.6899,4.7006,4.7022,4.7014,4.6956,4.7017,4.7036,4.6997,4.721,4.7143,4.7168,4.7252,4.7467,4.748,4.7492,4.7581,4.7607,4.7629,0,0,0,0,0,0,4.6729,4.6775,4.675,4.69,4.6949,4.6993,4.7071,4.7042,4.7109,4.7097,4.7084,4.7097,4.7229,4.7254,4.7178,4.7409,4.7329,4.7347,4.7388,4.7413,4.7432,4.7422,4.7097,0,0,0,0,0,4.6766,4.685,4.6885,4.7014,4.704,4.7052,4.7098,4.7087,4.7137,4.7158,4.7186,4.7236,4.7313,4.7365,4.7439,4.7594,4.7602,4.7664,4.7683,4.7699,4.7714,4.7793,4.782,4.7539,4.7539,4.7539,0,0,4.6844,4.688,4.6933,4.7033,4.707,4.7154,4.7069,4.7164,4.7226,4.7172,4.7293,4.7315,4.737,4.7511,4.7574,4.7535,4.7794,4.7715,4.7728,4.7734,4.7809,4.7835,4.7859,4.7548,4.7546,4.7545,0,0,4.7029,4.7066,4.7175,4.7213,4.7269,4.7275,4.7301,4.7349,4.7361,4.7482,4.7442,4.7516,4.7651,4.769,4.7728,4.7925,4.7889,4.7949,4.8051,4.8128,4.815,4.817,4.8235,4.826,4.7965,4.7965,4.7965,0,4.7118,4.7245,4.7235,4.7331,4.7374,4.7328,4.7437,4.7475,4.7553,4.7583,4.7538,4.7704,4.7738,4.7885,4.7932,4.7966,4.7993,4.7941,4.8148,4.8168,4.8186,4.8248,4.8273,4.7971,4.7971,4.797,4.7969,0,4.735,4.7439,4.752,4.7594,4.7647,4.775,4.7753,4.7808,4.7792,4.7802,4.7924,4.7963,4.8042,4.8076,4.8063,4.8221,4.8194,4.815,4.8068,4.8219,4.8277,4.8301,4.7981,4.7978,4.7976,4.7975,0,0,4.7595,4.766,4.7689,4.772,4.7778,4.7845,4.7945,4.8021,4.8066,4.8121,4.8201,4.8315,4.8273,4.8316,4.8307,4.8375,4.8522,4.8321,4.8322,4.8353,4.8693,4.8723,4.8751,4.85,4.8505,4.8509,4.8687,0,4.7779,4.7951,4.7943,4.8104,4.8183,4.814,4.8225,4.8269,4.8281,4.835,4.8363,4.8442,4.8383,4.8408,4.8474,4.849,4.8589,4.8478,4.8572,4.8576,4.8556,4.8783,4.8816,4.8982,4.871,4.8714,4.8717,0,4.8017,4.8078,4.8246,4.8288,4.8321,4.8398,4.8464,4.8531,4.8579,4.8583,4.8629,4.8608,4.8706,4.8624,4.8757,4.8681,4.8719,4.8733,4.8739,4.8745,4.8653,4.879,4.9035,4.9059,4.8753,4.875,4.8748,0,4.8173,4.8297,4.8412,4.8441,4.8494,4.8548,4.8573,4.8616,4.866,4.8719,4.8747,4.8817,4.8855,4.8908,4.8905,4.8847,4.9039,4.8958,4.9042,4.9042,4.9082,4.9078,4.9332,4.9113,4.9113,4.9112,4.9112,0,4.8377,4.8481,4.8482,4.8553,4.8666,4.8656,4.8768,4.8787,4.8825,4.8897,4.8865,4.8933,4.8927,4.8995,4.8994,4.9101,4.912,4.9124,4.9121,4.9124,4.9123,4.9147,4.9133,4.9119,4.9118,4.9116,4.9115,0,4.8569,4.8575,4.8697,4.8736,4.8748,4.883,4.8863,4.8929,4.8938,4.9029,4.905,4.9064,4.9142,4.9145,4.9236,4.9235,4.9364,4.9352,4.9348,4.9344,4.9426,4.9416,4.97,4.9735,4.9498,4.95,4.9502,0,4.8698,4.8776,4.8823,4.8868,4.8895,4.897,4.9014,4.9007,4.9055,4.9113,4.9171,4.9246,4.9305,4.9432,4.945,4.9518,4.9504,4.9599,4.9514,4.9513,4.95,4.9493,4.9499,4.9614,4.9617,4.9619,4.9621,0,4.8923,4.8921,4.8987,4.9053,4.9107,4.9159,4.9207,4.9246,4.9243,4.9298,4.9377,4.9423,4.9514,4.9588,4.9654,4.9677,4.9648,4.9647,4.9669,4.9671,4.9664,4.9664,4.9388,4.964,4.9638,4.9637,4.9636,4.9635,4.9084,4.9149,4.9191,4.9265,4.93,4.9344,4.9407,4.9423,4.9488,4.9561,4.9553,4.964,4.9682,4.9767,4.9796,4.9863,4.983,4.9863,4.9871,4.9878,4.9884,4.9657,4.9875,4.9875,4.9874,4.9874,4.9873,0,4.9303,4.9328,4.9396,4.9462,4.9519,4.9487,4.9537,4.9586,4.9663,4.9705,4.9763,4.9852,4.9923,4.9945,5.0013,5.0062,5.005,5.008,5.0074,5.0079,4.9913,4.9884,5.0088,5.0088,5.0088,5.0088,5.0088,5.0088,4.9424,4.9532,4.9534,4.9658,4.9682,4.9766,4.9797,4.9837,4.9869,4.997,5.0028,5.0042,5.0075,5.0145,5.0207,5.0212,5.0236,5.0271,5.027,5.0113,5.0091,5.0071,5.0044,5.0278,5.0278,5.043,5.0431,5.0432]},{"header":{"parameterUnit":"m.s-1","parameterCategory":1,"la1":30.2991,"la2":30.254,"lo1":-89.0895,"lo2":-89.0444,"dy":0.0017,"dx":0.0017,"nx":28,"ny":28,"refTime":"2024-07-04T21:00:00:Z","depth":0,"parameterNumber":3,"parameterNumberName":"V-component_of_WINDS"},"data":[0,0,0,0,0,0,0,0,0,0,0,0,0,0,0,0,0,0,0,0,0,0,0,0,0,0,0,0,0,0,0,0,0,0,0,0,0,0,0,0,0,0,0,0,0,0,0,0,0,0,0,0,0,0,0,0,0,0,2.3424,2.3425,0,2.3474,2.3475,2.3475,2.3443,2.3442,2.344,2.3439,2.3487,2.349,2.3493,0,0,0,0,0,0,0,0,0,0,0,0,0,2.3298,2.33,2.3424,2.3425,2.3426,2.3474,2.3475,2.3475,2.3443,2.3441,2.344,2.3438,2.3486,2.349,2.3493,0,0,0,0,0,0,0,0,0,0,0,0,0,2.335,2.3301,2.3424,2.3415,2.3415,2.3474,2.3475,2.3476,2.3444,2.3441,2.3439,2.3437,2.3485,2.3489,2.3493,2.3563,0,0,2.3506,2.3507,0,0,0,0,0,0,0,0,2.3348,2.3355,2.3416,2.3416,2.3416,2.345,2.3448,2.3505,2.3444,2.3433,2.3439,2.3436,2.3477,2.3481,2.3495,2.3565,2.3567,2.3506,2.3508,2.351,2.3511,0,0,0,0,0,0,0,2.3344,2.3353,2.3444,2.3417,2.3417,2.3408,2.3413,2.3459,2.3466,2.3434,2.3431,2.3438,2.3476,2.3492,2.3496,2.3568,2.3506,2.3509,2.3512,2.3513,2.3695,2.3697,0,0,0,0,0,0,2.3341,2.335,2.3442,2.3445,2.3376,2.3412,2.3418,2.3441,2.3466,2.3468,2.344,2.3436,2.3486,2.3492,2.3498,2.3579,2.351,2.3514,2.3516,2.3692,2.3695,2.3698,0,0,0,0,0,0,2.3339,2.335,2.344,2.3397,2.3408,2.3416,2.3443,2.3444,2.3459,2.3471,2.3472,2.3454,2.3484,2.3492,2.3547,2.3581,2.3516,2.3519,2.3689,2.3693,2.3696,2.3744,0,0,0,0,0,0,2.3335,2.3349,2.3377,2.3398,2.341,2.349,2.3446,2.3446,2.3466,2.3462,2.3485,2.3486,2.3483,2.3541,2.3551,2.3585,2.3522,2.3686,2.3691,2.3695,2.374,2.3749,2.3757,0,0,0,0,0,2.3331,2.3388,2.3378,2.339,2.3445,2.3492,2.3499,2.3495,2.3469,2.3496,2.3503,2.3485,2.3576,2.3547,2.3557,2.3594,2.3684,2.369,2.3695,2.3736,2.3747,2.3757,0,0,0,0,0,0,2.337,2.3391,2.338,2.3446,2.3468,2.3486,2.352,2.3507,2.3536,2.353,2.3524,2.3529,2.3585,2.3595,2.3562,2.3661,2.3626,2.3633,2.3653,2.3664,2.3672,2.3669,2.3526,0,0,0,0,0,2.3387,2.3424,2.3439,2.3496,2.3507,2.3512,2.3532,2.3527,2.3548,2.3557,2.3568,2.3589,2.3621,2.3643,2.3674,2.3741,2.3744,2.3771,2.378,2.3787,2.3793,2.3827,2.3839,2.3716,2.3715,2.3715,0,0,2.3421,2.3437,2.3461,2.3504,2.352,2.3557,2.352,2.3561,2.3588,2.3563,2.3615,2.3624,2.3646,2.3706,2.3734,2.3716,2.3828,2.3794,2.3799,2.3802,2.3834,2.3846,2.3856,2.3719,2.3718,2.3718,0,0,2.3502,2.3519,2.3567,2.3583,2.3608,2.361,2.3622,2.3642,2.3647,2.3699,2.3681,2.3712,2.3769,2.3785,2.3801,2.3886,2.387,2.3897,2.3942,2.3975,2.3985,2.3993,2.4022,2.4033,2.3903,2.3903,2.3903,0,2.3541,2.3598,2.3593,2.3635,2.3654,2.3634,2.3681,2.3697,2.3731,2.3743,2.3724,2.3794,2.3807,2.387,2.3891,2.3905,2.3916,2.3894,2.3984,2.3992,2.4,2.4028,2.4039,2.3906,2.3906,2.3906,2.3905,0,2.3644,2.3683,2.3719,2.3751,2.3774,2.3819,2.382,2.3844,2.3836,2.384,2.3892,2.3908,2.3941,2.3955,2.3949,2.4017,2.4005,2.3985,2.3949,2.4015,2.4041,2.4051,2.3911,2.3909,2.3909,2.3908,0,0,2.3752,2.378,2.3794,2.3807,2.3832,2.3862,2.3905,2.3937,2.3957,2.398,2.4015,2.4063,2.4044,2.4061,2.4056,2.4085,2.415,2.4061,2.4061,2.4076,2.4224,2.4239,2.4251,2.414,2.4142,2.4143,2.4222,0,2.3833,2.3909,2.3906,2.3976,2.4011,2.3991,2.4029,2.4047,2.4052,2.4081,2.4085,2.4119,2.4092,2.4102,2.4131,2.4136,2.418,2.4131,2.4171,2.4172,2.4165,2.4265,2.4281,2.4354,2.4232,2.4234,2.4235,0,2.3939,2.3966,2.404,2.4058,2.4072,2.4106,2.4135,2.4164,2.4183,2.4184,2.4204,2.4193,2.4235,2.4198,2.4255,2.4221,2.4237,2.4242,2.4245,2.4248,2.4207,2.4269,2.4378,2.4388,2.4251,2.425,2.4249,0,2.4008,2.4063,2.4114,2.4127,2.4149,2.4173,2.4183,2.4201,2.422,2.4245,2.4257,2.4286,2.4302,2.4324,2.432,2.4294,2.4377,2.4341,2.4378,2.4378,2.4396,2.4395,2.4508,2.4408,2.4408,2.4408,2.4408,0,2.4099,2.4145,2.4145,2.4177,2.4227,2.4221,2.4271,2.4278,2.4294,2.4325,2.4309,2.4339,2.4333,2.4362,2.436,2.4406,2.4414,2.4415,2.4413,2.4416,2.4415,2.4425,2.442,2.4411,2.441,2.4409,2.4409,0,2.4185,2.4188,2.4242,2.4258,2.4264,2.43,2.4313,2.4342,2.4345,2.4385,2.4394,2.4398,2.4431,2.443,2.4468,2.4466,2.4522,2.4516,2.4516,2.4514,2.4551,2.4547,2.4673,2.4689,2.458,2.4581,2.4582,0,2.4243,2.4278,2.4298,2.4318,2.433,2.4363,2.4382,2.4378,2.4398,2.4422,2.4448,2.448,2.4505,2.4558,2.4564,2.4592,2.4585,2.4627,2.4589,2.459,2.4584,2.4582,2.4584,2.4635,2.4636,2.4637,2.4638,0,2.4344,2.4343,2.4372,2.4401,2.4425,2.4448,2.4468,2.4486,2.4483,2.4507,2.454,2.456,2.4598,2.4629,2.4656,2.4665,2.465,2.465,2.4659,2.4662,2.466,2.466,2.4535,2.4647,2.4646,2.4645,2.4645,2.4644,2.4417,2.4446,2.4465,2.4497,2.4512,2.4531,2.4559,2.4565,2.4594,2.4625,2.462,2.4657,2.4674,2.4709,2.472,2.4748,2.4733,2.4748,2.4751,2.4755,2.4758,2.4656,2.4753,2.4753,2.4753,2.4753,2.4752,0,2.4516,2.4527,2.4557,2.4586,2.4611,2.4596,2.4618,2.4639,2.4673,2.469,2.4715,2.4753,2.4783,2.479,2.4819,2.4839,2.4833,2.4847,2.4845,2.4847,2.4771,2.4759,2.4851,2.4851,2.4851,2.4851,2.4851,2.4851,2.457,2.4619,2.462,2.4674,2.4685,2.4722,2.4735,2.4752,2.4766,2.4809,2.4834,2.4839,2.4852,2.4881,2.4907,2.4908,2.4919,2.4935,2.4933,2.4862,2.4852,2.4843,2.4832,2.4937,2.4938,2.5007,2.5007,2.5008]}]]